Location: Newark
(45.7425°N, 0.7617°W)
Time: 07:23:41
(UTC+00:00)

N. Korean satellite - Pass Details

Date: 27 January 2020
Orbit: 456 x 505 km, 97.2° (Epoch: 20 February)

Event Time Altitude Azimuth Distance (km) Brightness Sun altitude
Rises 04:51:59 0° 31° (NNE) 2,546 10.6 -27.7°
Reaches altitude 10° 04:54:47 10° 55° (NE) 1,672 10.0 -27.2°
Maximum altitude 04:56:54 15° 92° (E) 1,399 9.8 -26.8°
Drops below altitude 10° 04:59:01 10° 128° (SE) 1,680 9.9 -26.5°
Sets 05:01:50 0° 152° (SSE) 2,565 10.6 -26.0°
